Raleigh-Durham Airport, NC

7:44 AM EDT on April 23, 2017 (GMT -0400)
Raleigh-Durham International

Weather History for KRDU - October, 2010

Change the Weather History Date:

Wednesday, October 27, 2010

  Actual Average Record
Temperature  
Mean Temperature 80 °F 58 °F  
Max Temperature 87 °F 70 °F 87 °F (2010)
Min Temperature 73 °F 46 °F 19 °F (1962)
Degree Days  
Heating Degree Days 0 8  
Month to date heating degree days 78 134  
Since 1 July heating degree days 78 155  
Cooling Degree Days 15 1  
Month to date cooling degree days 61 49  
Year to date cooling degree days 2308 1717  
Growing Degree Days 30 (Base 50)    
Moisture  
Dew Point 69 °F    
Average Humidity 70    
Maximum Humidity 84    
Minimum Humidity 55    
Precipitation  
Precipitation 0.29 in 0.10 in 1.95 in (1920)
Month to date precipitation 2.31 2.85  
Year to date precipitation 33.10 36.75  
Sea Level Pressure  
Sea Level Pressure 29.97 in    
Wind  
Wind Speed 14 mph (SSW)    
Max Wind Speed 25 mph    
Max Gust Speed 37 mph    
Visibility 10 miles    
Events Rain , Thunderstorm    
T = Trace of Precipitation, MM = Missing Value Source: NWS Daily Summary

Daily Weather History Graph

Daily Weather History Graph

Search for Another Location

Airport or City:

Trip Planner

Search our weather history database for the weather conditions in past years. The results will help you decide how hot, cold, wet, or windy it might be!

Date:

Astronomy

Oct. 27, 2010 Rise Set
Actual Time 7:32 AM EDT 6:24 PM EDT
Civil Twilight 7:06 AM EDT 6:51 PM EDT
Nautical Twilight 6:36 AM EDT 7:21 PM EDT
Astronomical Twilight 6:06 AM EDT 7:50 PM EDT
Moon 9:53 PM EDT (10/27) 11:57 AM EDT (10/27)
Length of Visible Light 11h 44m
Length of Day
10h 52m
Waning Gibbous, 79% of the Moon is Illuminated
Oct 27
Waning Gibbous
Oct 30
Last Quarter
Nov 6
New
Nov 13
First Quarter
Nov 21
Full

Hourly Weather History & Observations

Time (EDT) Temp. Heat Index Dew Point Humidity Pressure Visibility Wind Dir Wind Speed Gust Speed Precip Events Conditions
12:51 AM 73.9 °F - 68.0 °F 82% 29.91 in 10.0 mi SSW 13.8 mph 20.7 mph N/A   Mostly Cloudy
1:51 AM 75.0 °F - 68.0 °F 79% 29.91 in 10.0 mi SSW 15.0 mph 21.9 mph N/A   Mostly Cloudy
2:51 AM 75.9 °F - 69.1 °F 79% 29.93 in 10.0 mi SSW 13.8 mph 24.2 mph N/A   Overcast
3:51 AM 75.9 °F - 69.1 °F 79% 29.93 in 10.0 mi SSW 13.8 mph - N/A   Overcast
4:51 AM 75.9 °F - 69.1 °F 79% 29.93 in 10.0 mi SSW 18.4 mph 25.3 mph N/A   Overcast
5:51 AM 75.9 °F - 68.0 °F 76% 29.94 in 10.0 mi SSW 13.8 mph 19.6 mph N/A   Mostly Cloudy
6:51 AM 75.9 °F - 69.1 °F 79% 29.96 in 10.0 mi SSW 13.8 mph - N/A   Overcast
7:51 AM 75.0 °F - 69.1 °F 82% 29.96 in 10.0 mi SSW 12.7 mph 27.6 mph N/A   Mostly Cloudy
8:51 AM 77.0 °F - 69.1 °F 76% 29.98 in 10.0 mi SW 16.1 mph 24.2 mph N/A   Mostly Cloudy
9:11 AM 75.2 °F - 69.8 °F 83% 30.00 in 10.0 mi SW 17.3 mph 24.2 mph N/A   Mostly Cloudy
9:51 AM 78.1 °F - 69.1 °F 74% 30.00 in 10.0 mi SSW 20.7 mph 28.8 mph N/A   Scattered Clouds
10:38 AM 78.8 °F - 68.0 °F 69% 30.02 in 10.0 mi SW 18.4 mph 36.8 mph N/A   Mostly Cloudy
10:51 AM 79.0 °F - 68.0 °F 69% 30.01 in 10.0 mi SW 19.6 mph 28.8 mph N/A   Mostly Cloudy
11:51 AM 80.6 °F 83.9 °F 69.8 °F 70% 30.02 in 10.0 mi SW 18.4 mph 25.3 mph N/A   Mostly Cloudy
12:51 PM 82.0 °F 84.9 °F 68.0 °F 62% 29.99 in 10.0 mi SW 19.6 mph 25.3 mph N/A   Mostly Cloudy
1:51 PM 84.9 °F 88.8 °F 69.1 °F 59% 29.97 in 10.0 mi SW 12.7 mph 25.3 mph N/A   Mostly Cloudy
2:51 PM 84.9 °F 88.2 °F 68.0 °F 57% 29.96 in 10.0 mi SW 16.1 mph 26.5 mph N/A   Mostly Cloudy
3:51 PM 86.0 °F 89.4 °F 68.0 °F 55% 29.95 in 10.0 mi SSW 17.3 mph 27.6 mph N/A   Mostly Cloudy
4:51 PM 82.0 °F 84.5 °F 66.9 °F 60% 29.95 in 10.0 mi SSW 10.4 mph 18.4 mph N/A   Mostly Cloudy
5:51 PM 82.0 °F 84.5 °F 66.9 °F 60% 29.95 in 10.0 mi SSW 11.5 mph - N/A   Mostly Cloudy
6:51 PM 81.0 °F 83.0 °F 66.0 °F 60% 29.96 in 10.0 mi SSW 13.8 mph - N/A   Mostly Cloudy
7:51 PM 80.1 °F 82.3 °F 66.9 °F 64% 29.98 in 10.0 mi SSW 9.2 mph - N/A   Mostly Cloudy
8:51 PM 79.0 °F - 66.9 °F 66% 29.98 in 10.0 mi SSW 8.1 mph - N/A   Mostly Cloudy
9:51 PM 78.1 °F - 68.0 °F 71% 30.00 in 10.0 mi SSW 10.4 mph - N/A   Mostly Cloudy
10:51 PM 77.0 °F - 70.0 °F 79% 30.01 in 10.0 mi SSW 11.5 mph - 0.00 in Rain Light Rain
11:38 PM 75.2 °F - 71.6 °F 89% 30.02 in 6.0 mi SW 6.9 mph - 0.10 in Rain , Thunderstorm Light Thunderstorms and Rain
11:51 PM 73.9 °F - 71.1 °F 91% 30.01 in 5.0 mi SW 5.8 mph - 0.12 in Rain , Thunderstorm Light Thunderstorms and Rain